Location: Chariton
(41.0140°N, 93.3060°W)
Time: 14:33:07
(UTC-05:00)

Envisat - Visible Passes

Search period start: 23 June 2018 00:00
Search period end: 03 July 2018 00:00
Orbit: 764 x 766 km, 98.2° (Epoch: 23 June)

Date Brightness Start Highest point End Pass type
(mag) Time Alt. Az. Time Alt. Az. Time Alt. Az.
23 Jun 5.6 21:51:41 10° WSW 21:54:27 15° W 21:57:14 10° WNW visible
26 Jun 5.5 21:39:40 10° SW 21:43:11 19° W 21:46:42 10° NW visible
29 Jun 5.3 21:27:53 10° SSW 21:31:55 24° W 21:35:59 10° NW visible
01 Jul 5.7 21:55:23 10° WSW 21:57:45 13° W 22:00:08 10° WNW visible
02 Jul 4.9 21:16:16 10° SSW 21:20:40 30° W 21:25:07 10° NW visible
